sat.trackr.live / text

‹ back to catalog

STARLINK-5811

NORAD 55787 · 2023-028AY

PAYLOAD ACTIVE UNKNOWN

§ Identity

Operator
Country
US
Launch date
2023-03-03
Launch site
AFWTR
Launch vehicle
Mass (kg)
RCS (m²)

Purposes: comms

External: N2YO · Heavens-Above · Gunter

§ Orbital elements

Epoch: 2026-05-25T01:37:16.549824Z

Period
96.11 min
Inclination
69.9997°
Eccentricity
0.0002728
Mean motion
14.98332728 rev/d
Perigee alt
570.2 km
Apogee alt
573.9 km
Semi-major
6,950.2 km
B*
2.5476e-5
RAAN
12.0117°
Arg perigee
270.3300°
Mean anomaly
89.7546°
Rev number
17,846

§ Raw data

STARLINK-58111 55787U 23028AY  26145.06755266  .00000211  00000+0  25476-4 0  99932 55787  69.9997  12.0117 0002728 270.3300  89.7546 14.98332728178461

JSON: /api/v1/satellites/55787 · /tle

For live sub-satellite position, see the globe view (requires WebGL).

§ Visibility from observer

Set your observer location to see the next 7 days of passes ≥ 10°. The values pass through the URL so the page stays shareable.

No JS? Fill the form by hand. The geolocation button needs JavaScript.